Location: Lugrin
(46.4033°N, 6.6674°E)
Time: 06:41:47
(UTC+00:00)

Tsikada Rocket - Pass Details

Date: 18 January 2021
Orbit: 957 x 1009 km, 82.9° (Epoch: 04 March)

Event Time Altitude Azimuth Distance (km) Brightness Sun altitude
Rises 17:44:11 0° 211° (SSW) 3,710 7.8 -14.7°
Reaches altitude 10° 17:46:54 10° 219° (SW) 2,758 7.2 -15.1°
Maximum altitude 17:52:46 39° 287° (WNW) 1,446 5.4 -16.1°
Drops below altitude 10° 17:58:37 10° 355° (N) 2,741 6.3 -17.1°
Sets 18:01:19 0° 4° (N) 3,685 6.9 -17.5°
